Погода в Старой Синяве

Украина / Хмельницкая область     49°35′45″N   27°37′23″E
темп.,
°C
ветер,
м/с
пор.,
м/с
влажн.,
%
обл.,
%
осадки,
мм/ч
давл.,
гПа
погр.,
м
23 апреля, пт
пт2300:00+6сз6991100 0.2 1017456
03:00+5сз4886100 0.5 1017630
06:00+4зсз4889100 0.0 1018358
09:00+6сз4767100 0.2 1019653
12:00+8сз5653100 0.0 10191486
15:00+10зсз5641100 0.0 10182167
18:00+8зсз675198 0.1 10181472
21:00+4зсз387282 0.4 1020177
24 апреля, сб
сб2400:00+3з39785 0.0 1021183
03:00+1з410845 0.0 1021246
06:00+1з6148690 0.0 1020658
09:00+3сз711635 0.1 10221236
12:00+6сз71041100 0.0 10222587
15:00+7сз7104497 0.1 10222034
18:00+7сз684779 0.0 10221697
21:00+3зюз11615 0.0 102310
25 апреля, вс
вс2500:00+2юз356655 0.0 102267
03:00+2юз37769 0.0 1021120
06:00+1зюз498991 0.0 1020183
09:00+5з6988100 0.2 1020795
12:00+6сз6779100 0.8 10201039
15:00+8сз5655100 0.8 10191663
18:00+7сз5643100 0.0 10191598
21:00+3зсз225497 0.0 101911
26 апреля, пн
пн2600:00+1с2264100 0.0 102017
03:00+2зюз1162100 0.0 101910
06:00+2зсз3765100 0.0 1019145
09:00+5з575928 0.4 10181029
12:00+7зсз6843100 0.3 10182383
15:00+8зсз7941100 0.4 10172432
18:00+6зсз575099 0.0 10161682
21:00+2зсз227267 0.1 101722
27 апреля, вт
вт2700:00+1з237498 0.0 101831
03:00+1зсз3473100 0.0 101768
06:00−1зсз33775 0.0 101753
09:00+5з57532 0.0 1017890
12:00+8зсз674127 0.0 10171818
15:00+10зсз564595 0.0 10161884
18:00+10зсз454876 0.0 10151633
21:00+5св226724 0.0 101610